Riverside, CA

4:05 AM PDT on July 28, 2017 (GMT -0700)
Riverside Municipal

Weather History for KRAL - April, 2014

Change the Weather History Date:

Tuesday, April 22, 2014

  Actual Average Record
Temperature  
Mean Temperature 66 °F 64 °F  
Max Temperature 74 °F 77 °F 100 °F (1910)
Min Temperature 57 °F 52 °F 31 °F (1932)
Degree Days  
Heating Degree Days 0 3  
Month to date heating degree days 45 88  
Since 1 July heating degree days 782 1401  
Cooling Degree Days 1 2  
Month to date cooling degree days 70 26  
Year to date cooling degree days 129 47  
Growing Degree Days 15 (Base 50)    
Moisture  
Dew Point 50 °F    
Average Humidity 66    
Maximum Humidity 93    
Minimum Humidity 38    
Precipitation  
Precipitation 0.00 in 0.03 in 0.49 in (1914)
Month to date precipitation 0.14 0.57  
Year to date precipitation 1.50 8.56  
Since 1 July precipitation 2.65  
Snow  
Snow 0.00 in - - ()
Month to date snowfall 0.0  
Year to date snowfall 0.0  
Snow Depth 0.00 in    
Sea Level Pressure  
Sea Level Pressure 29.90 in    
Wind  
Wind Speed 4 mph (West)    
Max Wind Speed 15 mph    
Max Gust Speed 24 mph    
Visibility 8 miles    
Events      
T = Trace of Precipitation, MM = Missing Value Source: NWS Daily Summary

Daily Weather History Graph

Daily Weather History Graph

Search for Another Location

Airport or City:

Trip Planner

Search our weather history database for the weather conditions in past years. The results will help you decide how hot, cold, wet, or windy it might be!

Date:

Astronomy

Apr. 22, 2014 Rise Set
Actual Time 6:10 AM PDT 7:26 PM PDT
Civil Twilight 5:44 AM PDT 7:52 PM PDT
Nautical Twilight 5:13 AM PDT 8:23 PM PDT
Astronomical Twilight 4:40 AM PDT 8:56 PM PDT
Moon 1:43 AM PDT (4/22) 12:51 PM PDT (4/22)
Length of Visible Light 14h 08m
Length of Day
13h 16m
Last Quarter, 45% of the Moon is Illuminated
Apr 22
Last Quarter
Apr 28
New
May 6
First Quarter
May 14
Full
May 21
Last Quarter

Hourly Weather History & Observations

Time (PDT) Temp. Dew Point Humidity Pressure Visibility Wind Dir Wind Speed Gust Speed Precip Events Conditions
12:53 AM 59.0 °F 53.1 °F 81% 29.94 in 10.0 mi West 4.6 mph - N/A   Clear
1:53 AM 59.0 °F 54.0 °F 83% 29.92 in 8.0 mi Calm Calm - N/A   Clear
2:53 AM 57.9 °F 54.0 °F 87% 29.92 in 6.0 mi West 3.5 mph - N/A   Partly Cloudy
3:06 AM 57.9 °F 55.0 °F 90% 29.95 in 6.0 mi West 4.6 mph - N/A   Mostly Cloudy
3:53 AM 57.9 °F 55.0 °F 90% 29.90 in 7.0 mi Calm Calm - N/A   Overcast
4:53 AM 57.9 °F 54.0 °F 87% 29.90 in 7.0 mi Calm Calm - N/A   Overcast
5:53 AM 59.0 °F 54.0 °F 83% 29.90 in 7.0 mi WNW 3.5 mph - N/A   Overcast
6:53 AM 57.9 °F 53.1 °F 84% 29.91 in 5.0 mi Calm Calm - N/A   Overcast
6:58 AM 57.2 °F 53.6 °F 88% - 5.0 mi SSW 5.8 mph - N/A   Overcast
7:53 AM 59.0 °F 53.1 °F 81% 29.93 in 5.0 mi Variable 3.5 mph - N/A   Overcast
8:53 AM 60.1 °F 53.1 °F 78% 29.94 in 6.0 mi WNW 4.6 mph - N/A   Overcast
9:53 AM 60.1 °F 51.1 °F 72% 29.95 in 10.0 mi WSW 4.6 mph - N/A   Overcast
10:53 AM 63.0 °F 51.1 °F 65% 29.96 in 10.0 mi Variable 4.6 mph - N/A   Overcast
11:53 AM 66.0 °F 50.0 °F 56% 29.92 in 10.0 mi Calm Calm - N/A   Clear
12:53 PM 70.0 °F 48.9 °F 47% 29.91 in 10.0 mi NNW 5.8 mph - N/A   Scattered Clouds
1:53 PM 71.1 °F 48.9 °F 45% 29.89 in 10.0 mi Variable 6.9 mph - N/A   Scattered Clouds
2:33 PM 73.0 °F 46.9 °F 39% 29.91 in 2.0 mi Variable 5.8 mph 16.1 mph N/A   Haze
2:42 PM 73.0 °F 46.9 °F 39% 29.91 in 10.0 mi WNW 8.1 mph - N/A   Partly Cloudy
2:53 PM 73.0 °F 46.9 °F 39% 29.86 in 10.0 mi Variable 6.9 mph - N/A   Partly Cloudy
3:53 PM 72.0 °F 46.0 °F 40% 29.84 in 10.0 mi WNW 10.4 mph 18.4 mph N/A   Partly Cloudy
4:53 PM 71.1 °F 48.0 °F 44% 29.84 in 10.0 mi West 12.7 mph 19.6 mph N/A   Clear
5:53 PM 69.1 °F 46.0 °F 44% 29.83 in 10.0 mi West 11.5 mph 18.4 mph N/A   Clear
6:53 PM 66.0 °F 46.9 °F 50% 29.84 in 10.0 mi West 12.7 mph 20.7 mph N/A   Clear
7:53 PM 62.1 °F 46.9 °F 58% 29.86 in 10.0 mi West 10.4 mph - N/A   Clear
8:53 PM 61.0 °F 48.0 °F 62% 29.88 in 10.0 mi WNW 9.2 mph - N/A   Clear
9:53 PM 60.1 °F 48.0 °F 64% 29.91 in 10.0 mi Calm Calm - N/A   Clear
10:53 PM 57.0 °F 48.0 °F 72% 29.90 in 10.0 mi Calm Calm - N/A   Clear
11:53 PM 57.9 °F 48.0 °F 70% 29.90 in 10.0 mi Calm Calm - N/A   Clear